Total_Precipitation_Accumulation
0.57 0.69 0.68 0.54 0.49 0.48 0.47 0.54 0.74 0.74 0.75 0.89 1.07 1.18 1.09 1.09 1.05 0.95 0.77 0.64 0.55 0.47 0.44 0.43 0.44 0.46 0.50 0.54 0.58 0.69 0.80 0.84 0.91 1.05 1.25 1.49 1.71 1.92
0.62 0.67 0.75 0.75 0.67 0.63 0.62 0.65 0.79 0.82 0.86 0.93 1.11 1.21 1.07 0.89 0.90 0.93 0.81 0.74 0.62 0.52 0.45 0.45 0.46 0.45 0.43 0.44 0.42 0.41 0.44 0.48 0.54 0.61 0.70 0.83 1.00 1.28
0.81 0.80 0.79 0.87 0.93 0.85 0.83 0.84 0.87 0.95 0.98 0.97 1.11 1.15 1.03 0.83 0.78 0.82 0.81 0.82 0.69 0.63 0.53 0.47 0.45 0.44 0.42 0.42 0.42 0.40 0.37 0.36 0.36 0.40 0.44 0.49 0.54 0.60
0.95 1.08 1.09 1.02 0.97 0.91 0.92 0.94 1.00 1.13 1.14 1.10 1.13 1.18 1.11 0.98 0.88 0.78 0.67 0.66 0.70 0.73 0.62 0.52 0.47 0.44 0.42 0.40 0.40 0.38 0.38 0.36 0.33 0.30 0.30 0.32 0.35 0.39
0.83 1.07 1.27 1.41 1.31 1.10 0.98 0.94 1.00 1.11 1.24 1.19 1.17 1.30 1.29 1.17 1.02 0.83 0.68 0.66 0.60 0.64 0.64 0.57 0.50 0.47 0.45 0.42 0.40 0.37 0.33 0.32 0.31 0.31 0.28 0.27 0.27 0.28
0.77 0.86 0.97 1.16 1.32 1.36 1.22 1.08 1.05 1.14 1.25 1.27 1.35 1.56 1.58 1.42 1.17 0.95 0.84 0.73 0.65 0.54 0.56 0.59 0.56 0.49 0.46 0.44 0.41 0.37 0.36 0.34 0.33 0.32 0.31 0.30 0.28 0.27
0.81 0.80 0.76 0.83 0.95 1.09 1.17 1.25 1.23 1.19 1.25 1.32 1.52 1.91 1.91 1.65 1.28 1.07 1.01 0.95 0.82 0.70 0.65 0.56 0.51 0.47 0.45 0.46 0.45 0.43 0.39 0.37 0.35 0.33 0.34 0.33 0.31 0.30
0.96 0.91 0.83 0.76 0.75 0.82 0.90 1.01 1.15 1.18 1.18 1.24 1.42 1.72 1.89 1.78 1.52 1.31 1.10 0.98 0.90 0.83 0.78 0.71 0.60 0.53 0.46 0.41 0.44 0.43 0.41 0.37 0.34 0.31 0.29 0.29 0.29 0.28
1.15 1.16 0.94 0.75 0.79 0.78 0.84 0.84 0.86 0.94 1.03 1.11 1.26 1.46 1.75 1.87 1.70 1.33 1.16 1.06 0.88 0.79 0.78 0.74 0.68 0.60 0.51 0.47 0.51 0.42 0.41 0.40 0.35 0.32 0.29 0.27 0.25 0.25
1.00 1.01 0.97 0.84 0.79 0.78 0.79 0.75 0.70 0.69 0.73 0.80 0.92 1.13 1.40 1.71 1.86 1.62 1.43 1.27 1.06 0.91 0.76 0.73 0.73 0.66 0.56 0.51 0.56 0.48 0.41 0.40 0.38 0.34 0.31 0.29 0.27 0.25
0.83 0.85 0.87 0.79 0.73 0.62 0.62 0.63 0.62 0.60 0.57 0.60 0.67 0.83 1.08 1.38 1.72 1.84 1.56 1.23 1.08 0.90 0.77 0.69 0.65 0.69 0.67 0.56 0.55 0.57 0.48 0.43 0.40 0.39 0.36 0.34 0.31 0.30
0.96 0.98 0.94 0.81 0.70 0.54 0.52 0.56 0.56 0.53 0.56 0.56 0.55 0.60 0.73 0.97 1.32 1.50 1.51 1.23 1.00 0.88 0.65 0.59 0.56 0.59 0.64 0.56 0.45 0.44 0.45 0.47 0.46 0.42 0.40 0.38 0.37 0.28
1.05 1.12 1.07 0.89 0.65 0.51 0.45 0.45 0.42 0.46 0.52 0.55 0.55 0.58 0.70 0.87 1.03 1.25 1.38 1.30 1.05 0.78 0.62 0.58 0.51 0.51 0.53 0.49 0.46 0.42 0.40 0.40 0.41 0.42 0.42 0.43 0.44 0.38
0.95 1.09 1.10 0.92 0.69 0.53 0.42 0.36 0.33 0.32 0.38 0.44 0.46 0.48 0.55 0.67 0.85 1.11 1.32 1.33 1.19 0.95 0.77 0.74 0.67 0.57 0.51 0.45 0.41 0.41 0.41 0.39 0.38 0.37 0.38 0.47 0.47 0.48
0.74 0.99 1.08 0.95 0.80 0.65 0.54 0.47 0.38 0.32 0.35 0.38 0.36 0.36 0.40 0.52 0.73 1.07 1.42 1.54 1.44 1.19 1.00 0.85 0.75 0.71 0.69 0.55 0.40 0.35 0.37 0.38 0.35 0.36 0.39 0.44 0.44 0.44
0.67 0.81 0.94 0.97 0.88 0.81 0.70 0.57 0.46 0.41 0.39 0.40 0.40 0.43 0.51 0.62 0.75 0.90 1.22 1.46 1.49 1.30 1.11 0.97 0.86 0.84 0.78 0.65 0.51 0.37 0.32 0.34 0.35 0.37 0.42 0.45 0.50 0.50
0.67 0.76 0.90 1.00 1.01 0.97 0.94 0.83 0.71 0.64 0.57 0.54 0.59 0.60 0.64 0.70 0.73 0.82 1.03 1.22 1.23 1.11 1.00 0.99 0.98 0.94 0.87 0.83 0.70 0.46 0.36 0.32 0.32 0.40 0.49 0.51 0.52 0.58
0.48 0.64 0.81 0.98 1.10 1.14 1.17 1.11 0.99 0.89 0.79 0.76 0.78 0.74 0.72 0.76 0.77 0.79 0.92 1.07 1.07 1.02 0.97 0.91 0.98 1.07 1.01 0.85 0.69 0.56 0.44 0.37 0.38 0.47 0.54 0.56 0.52 0.53
0.32 0.50 0.66 0.81 0.98 1.12 1.15 1.11 1.03 1.00 1.00 0.98 0.97 0.92 0.85 0.84 0.87 0.85 0.87 0.98 1.05 1.02 1.02 0.99 0.98 1.00 0.96 0.73 0.51 0.48 0.52 0.49 0.53 0.56 0.59 0.58 0.51 0.50
0.29 0.45 0.58 0.72 0.86 1.03 1.08 1.07 1.09 1.11 1.11 1.07 1.08 1.08 1.04 0.98 0.98 0.95 0.91 0.92 1.01 1.08 1.08 1.06 0.99 0.90 0.82 0.73 0.63 0.52 0.51 0.63 0.68 0.65 0.64 0.66 0.60 0.59
0.36 0.42 0.49 0.60 0.78 0.95 1.08 1.12 1.15 1.14 1.13 1.14 1.14 1.15 1.17 1.11 1.01 1.00 1.04 1.03 1.01 1.06 1.01 0.89 0.87 0.97 1.04 1.07 0.92 0.65 0.53 0.55 0.66 0.71 0.75 0.83 0.75 0.70
0.51 0.55 0.56 0.63 0.80 0.97 1.09 1.19 1.24 1.20 1.16 1.17 1.18 1.18 1.18 1.16 1.06 1.05 1.13 1.11 0.99 0.93 0.93 0.96 1.11 1.26 1.24 1.13 0.88 0.69 0.63 0.65 0.68 0.72 0.76 0.80 0.79 0.70
0.65 0.62 0.57 0.61 0.76 0.93 1.03 1.14 1.23 1.22 1.15 1.13 1.19 1.24 1.17 1.12 1.07 1.08 1.12 1.17 1.13 1.06 1.10 1.13 1.19 1.23 1.19 1.15 1.06 0.90 0.76 0.75 0.77 0.72 0.61 0.57 0.56 0.55